Change the Weather History Date:

Sunday, January 27, 2013

  Actual Average Record
Temperature  
Mean Temperature 62 °F 41 °F  
Max Temperature 75 °F 55 °F 78 °F (1956)
Min Temperature 48 °F 27 °F 5 °F (1925)
Degree Days  
Heating Degree Days 3 24  
Month to date heating degree days 665 672  
Since 1 July heating degree days 1860 2070  
Cooling Degree Days 0 0  
Month to date cooling degree days 0 0  
Year to date cooling degree days 0 0  
Growing Degree Days 15 (Base 50)    
Moisture  
Dew Point 43 °F    
Average Humidity 57    
Maximum Humidity 93    
Minimum Humidity 21    
Precipitation  
Precipitation 0.00 in 0.03 in 0.47 in (2001)
Month to date precipitation 0.89 0.55  
Year to date precipitation 0.89 0.55  
Snow  
Snow 0.00 in 0.10 in 1.30 in (1949)
Month to date snowfall T 2.2  
Since 1 July snowfall 0.3 5.4  
Snow Depth 0.00 in    
Sea Level Pressure  
Sea Level Pressure 29.84 in    
Wind  
Wind Speed 19 mph (SW)    
Max Wind Speed 38 mph    
Max Gust Speed 46 mph    
Visibility 9 miles    
Events      
T = Trace of Precipitation, MM = Missing Value Source: NWS Daily Summary

Daily Weather History Graph

Daily Weather History Graph

Search for Another Location

Airport or City:

Trip Planner

Search our weather history database for the weather conditions in past years. The results will help you decide how hot, cold, wet, or windy it might be!

Date:

Astronomy

Jan. 27, 2013 Rise Set
Actual Time 7:46 AM CST 6:13 PM CST
Civil Twilight 7:20 AM CST 6:40 PM CST
Nautical Twilight 6:50 AM CST 7:10 PM CST
Astronomical Twilight 6:20 AM CST 7:39 PM CST
Moon 7:04 PM CST (1/27) 7:45 AM CST (1/27)
Length of Visible Light 11h 19m
Length of Day
10h 27m
Full, 100% of the Moon is Illuminated
Jan 27
Full
Feb 3
Last Quarter
Feb 10
New
Feb 17
First Quarter
Feb 25
Full

Hourly Weather History & Observations

Time (CST) Temp. Dew Point Humidity Pressure Visibility Wind Dir Wind Speed Gust Speed Precip Events Conditions
12:51 AM 48.2 °F 44.6 °F 87% 29.98 in 10.0 mi SSE 8.1 mph - N/A   Overcast
12:53 AM 50.0 °F 45.0 °F 83% 29.91 in 10.0 mi SSE 8.1 mph - N/A   Overcast
1:53 AM 52.0 °F 48.9 °F 89% 29.90 in 9.0 mi South 8.1 mph - N/A   Overcast
2:02 AM 53.6 °F 50.0 °F 88% 29.97 in 8.0 mi South 9.2 mph 18.4 mph N/A   Overcast
2:12 AM 53.6 °F 50.0 °F 88% 29.97 in 8.0 mi South 10.4 mph - N/A   Overcast
2:53 AM 55.9 °F 53.1 °F 90% 29.86 in 7.0 mi SSW 15.0 mph - N/A   Overcast
3:53 AM 57.0 °F 54.0 °F 89% 29.85 in 7.0 mi SSW 18.4 mph - N/A   Overcast
4:53 AM 57.0 °F 54.0 °F 89% 29.84 in 6.0 mi SSW 17.3 mph 26.5 mph N/A   Overcast
5:53 AM 57.9 °F 54.0 °F 87% 29.83 in 7.0 mi SSW 20.7 mph 27.6 mph N/A   Overcast
6:53 AM 57.0 °F 53.1 °F 87% 29.84 in 7.0 mi SSW 18.4 mph - N/A   Mostly Cloudy
7:53 AM 55.0 °F 53.1 °F 93% 29.86 in 7.0 mi SSW 19.6 mph 25.3 mph N/A   Mostly Cloudy
8:53 AM 57.0 °F 53.1 °F 87% 29.85 in 8.0 mi SSW 17.3 mph - N/A   Mostly Cloudy
9:53 AM 60.1 °F 52.0 °F 75% 29.86 in 10.0 mi SW 19.6 mph 24.2 mph N/A   Mostly Cloudy
10:53 AM 66.0 °F 48.9 °F 54% 29.85 in 10.0 mi SW 21.9 mph 27.6 mph N/A   Scattered Clouds
11:53 AM 71.1 °F 42.1 °F 35% 29.83 in 9.0 mi WSW 27.6 mph 36.8 mph N/A   Scattered Clouds
12:53 PM 73.0 °F 36.0 °F 26% 29.79 in 4.0 mi West 33.4 mph 42.6 mph N/A   Widespread Dust
1:53 PM 73.9 °F 36.0 °F 25% 29.75 in 8.0 mi WSW 29.9 mph 36.8 mph N/A   Partly Cloudy
2:53 PM 75.0 °F 33.1 °F 22% 29.74 in 10.0 mi West 24.2 mph 36.8 mph N/A   Scattered Clouds
3:53 PM 73.0 °F 32.0 °F 22% 29.75 in 10.0 mi SW 27.6 mph 36.8 mph N/A   Scattered Clouds
4:53 PM 71.1 °F 35.1 °F 27% 29.76 in 10.0 mi WSW 23.0 mph 33.4 mph N/A   Scattered Clouds
5:53 PM 68.0 °F 35.1 °F 30% 29.77 in 10.0 mi SW 21.9 mph 32.2 mph N/A   Scattered Clouds
6:53 PM 64.9 °F 35.1 °F 33% 29.79 in 10.0 mi SW 17.3 mph - N/A   Partly Cloudy
7:53 PM 64.0 °F 35.1 °F 34% 29.82 in 10.0 mi SW 19.6 mph - N/A   Partly Cloudy
8:53 PM 62.1 °F 35.1 °F 37% 29.83 in 10.0 mi WSW 18.4 mph - N/A   Clear
9:53 PM 59.0 °F 36.0 °F 42% 29.83 in 10.0 mi West 16.1 mph - N/A   Clear
10:53 PM 55.0 °F 36.0 °F 49% 29.84 in 10.0 mi WSW 10.4 mph - N/A   Clear
11:53 PM 55.0 °F 36.0 °F 49% 29.83 in 10.0 mi WSW 10.4 mph - N/A   Clear